{"data":{"norad_id":56471,"epoch":"2026-05-24T20:11:30.893856Z","epoch_age_seconds":84706,"freshness":"FRESH","line1":"1 56471U 23064Z   26144.84132979  .00000896  00000+0  82879-4 0  9998","line2":"2 56471  69.9987 292.5457 0003257 265.4146  94.6641 14.98328106167143","mean_motion":14.98328106,"eccentricity":0.0003257,"inclination_deg":69.9987,"raan_deg":292.5457,"arg_perigee_deg":265.4146,"mean_anomaly_deg":94.6641,"bstar":8.2879e-5,"rev_number":16714,"period_min":96.107120612206,"perigee_km":569.79806825713,"apogee_km":574.32542772157,"semimajor_km":6950.1987479893,"source":"CELESTRAK","updated_at":"2026-05-25T13:38:18.071249Z"}}